Penticton, British Columbia

11:03 PM PDT on April 24, 2018 (GMT -0700)
Penticton

Weather History for CYYF - October, 2012

Change the Weather History Date:

Sunday, October 14, 2012

  Actual Average Record
Temperature  
Mean Temperature 56 °F -  
Max Temperature 64 °F 51 °F 69 °F (2004)
Min Temperature 49 °F 34 °F 23 °F (2017)
Degree Days  
Heating Degree Days 8    
Growing Degree Days 6 (Base 50)    
Moisture  
Dew Point 50 °F    
Average Humidity 70    
Maximum Humidity 100    
Minimum Humidity 55    
Precipitation  
Precipitation 0.01 in 0.03 in - ()
Sea Level Pressure  
Sea Level Pressure 29.89 in    
Wind  
Wind Speed 13 mph ()    
Max Wind Speed 28 mph    
Max Gust Speed 36 mph    
Visibility 15.0 miles    
Events Rain    
Averages and records for this station are not official NWS values.
T = Trace of Precipitation, MM = Missing Value Source: Averaged Metar Reports

Daily Weather History Graph

Daily Weather History Graph

Search for Another Location

Airport or City:

Astronomy

Oct. 14, 2012 Rise Set
Actual Time 7:18 AM PDT 6:08 PM PDT
Civil Twilight 6:46 AM PDT 6:40 PM PDT
Nautical Twilight 6:09 AM PDT 7:17 PM PDT
Astronomical Twilight 5:32 AM PDT 7:54 PM PDT
Moon 6:23 AM PDT (10/14) 5:29 PM PDT (10/14)
Length of Visible Light 11h 54m
Length of Day
10h 49m
Waning Crescent, 1% of the Moon is Illuminated
Oct 14
Waning Crescent
Oct 15
New
Oct 21
First Quarter
Oct 29
Full
Nov 6
Last Quarter

Hourly Weather History & Observations

Time (PDT) Temp. Dew Point Humidity Pressure Visibility Wind Dir Wind Speed Gust Speed Precip Events Conditions
12:00 AM 50.0 °F 50.0 °F 100% 30.05 in 15.0 mi Calm Calm - N/A   Overcast
12:50 AM 50.0 °F 48.2 °F 94% 30.03 in 15.0 mi North 3.5 mph - N/A Rain Light Rain Showers
1:00 AM 50.0 °F 48.2 °F 94% 30.02 in 15.0 mi North 5.8 mph - N/A Rain Light Rain Showers
2:00 AM 53.6 °F 51.8 °F 94% 30.01 in 15.0 mi NNW 6.9 mph - N/A   Overcast
3:00 AM 59.0 °F 50.0 °F 72% 29.98 in 15.0 mi South 13.8 mph 20.7 mph N/A   Overcast
4:00 AM 59.0 °F 50.0 °F 72% 29.96 in 15.0 mi South 21.9 mph 34.5 mph N/A   Overcast
5:00 AM 60 °F 50 °F 60% 29.97 in 15 mi South 18.4 mph - -   Partly Cloudy
5:00 AM 59.0 °F 50.0 °F 72% 29.97 in 15.0 mi South 18.4 mph 26.5 mph N/A   Overcast
5:05 AM 59.0 °F 50.0 °F 72% 29.96 in 15.0 mi South 17.3 mph 26.5 mph N/A Rain Light Rain Showers
6:00 AM 59.0 °F 50.0 °F 72% 29.95 in 15.0 mi South 19.6 mph 31.1 mph N/A Rain Light Rain Showers
6:31 AM 59.0 °F 50.0 °F 72% 29.93 in 15.0 mi South 20.7 mph 28.8 mph N/A   Overcast
7:00 AM 59.0 °F 50.0 °F 72% 29.91 in 15.0 mi South 17.3 mph 28.8 mph N/A   Overcast
8:00 AM 59.0 °F 50.0 °F 72% 29.90 in 15.0 mi South 18.4 mph 28.8 mph N/A   Overcast
9:00 AM 60.8 °F 50.0 °F 68% 29.88 in 15.0 mi South 27.6 mph 35.7 mph N/A   Overcast
10:00 AM 60.8 °F 50.0 °F 68% 29.87 in 15.0 mi South 21.9 mph 35.7 mph N/A   Overcast
11:00 AM 61 °F 49 °F 55% 29.86 in 15 mi South 23.0 mph - -   Partly Cloudy
12:00 PM 60.8 °F 50.0 °F 68% 29.85 in 15.0 mi SSW 23.0 mph 31.1 mph N/A   Overcast
12:54 PM 62.6 °F 50.0 °F 63% 29.86 in 15.0 mi South 18.4 mph - N/A Rain Light Rain Showers
1:00 PM 62.6 °F 51.8 °F 68% 29.86 in 15.0 mi South 15.0 mph 24.2 mph N/A Rain Light Rain Showers
2:00 PM 62.6 °F 50.0 °F 63% 29.85 in 15.0 mi South 18.4 mph 27.6 mph N/A   Overcast
2:11 PM 64.4 °F 50.0 °F 59% 29.85 in 15.0 mi South 20.7 mph 27.6 mph N/A Rain Light Rain Showers
3:00 PM 62.6 °F 51.8 °F 68% 29.85 in 15.0 mi South 15.0 mph - N/A Rain Light Rain Showers
4:00 PM 62.6 °F 51.8 °F 68% 29.84 in 15.0 mi South 17.3 mph - N/A Rain Light Rain Showers
5:00 PM 63 °F 51 °F 56% 29.81 in 15 mi SSW 20.7 mph - - Rain Light Rain Showers
5:00 PM 62.6 °F 51.8 °F 68% 29.80 in 15.0 mi SSW 20.7 mph 27.6 mph N/A   Mostly Cloudy
6:00 PM 64.4 °F 50.0 °F 59% 29.79 in 15.0 mi SSW 20.7 mph 28.8 mph N/A   Mostly Cloudy
7:00 PM 62.6 °F 50.0 °F 63% 29.79 in 15.0 mi SSW 16.1 mph 23.0 mph N/A   Mostly Cloudy
8:00 PM 64.4 °F 50.0 °F 59% 29.80 in 15.0 mi SSW 17.3 mph 24.2 mph N/A   Mostly Cloudy
9:00 PM 62.6 °F 50.0 °F 63% 29.78 in 25.0 mi South 12.7 mph 19.6 mph N/A   Mostly Cloudy
10:00 PM 62.6 °F 48.2 °F 59% 29.78 in 15.0 mi South 15.0 mph - N/A   Mostly Cloudy